Wind_Speed
30 28 24 23 22 22 22 23 24 24 25 25 25 27 27 27 27 27 29 30 31 32 33 34 34 33 33 32 31 31 31 31 31 30 30 30 31 31 31 32 33 34 35
31 29 27 25 25 25 25 25 26 27 27 28 29 31 30 30 30 31 31 32 34 35 37 37 37 36 35 35 33 32 30 30 29 30 31 31 32 33 34 35 36 37 38
32 31 29 28 28 27 27 28 28 29 30 30 32 31 32 33 33 33 34 35 35 37 38 38 37 34 33 32 33 32 31 31 30 30 31 32 34 36 36 36 37 39 40
33 32 32 31 31 30 30 29 29 31 32 31 32 34 35 36 36 37 38 38 38 39 37 36 34 32 30 29 29 28 30 30 30 31 33 35 36 38 38 39 40 40 41
35 35 35 34 34 33 32 31 31 32 33 34 34 34 36 36 38 40 40 41 41 40 37 35 34 32 31 30 30 30 30 32 33 34 35 37 38 39 41 42 43 44 45
35 36 37 36 35 34 34 33 34 34 35 36 36 35 36 37 38 40 40 41 41 40 37 36 36 34 34 33 33 34 34 35 36 37 37 38 41 43 44 46 46 48 49
30 32 34 35 35 35 35 35 35 35 36 36 36 36 38 40 41 41 41 42 41 40 40 39 37 37 37 37 37 37 37 38 38 39 41 42 44 45 47 48 50 51 53
26 28 31 32 33 34 35 35 35 35 36 36 37 37 39 40 41 41 43 42 42 43 42 41 41 39 39 40 41 41 41 42 42 43 45 46 48 49 50 51 53 55 57
24 25 27 29 31 32 33 34 35 36 36 38 38 39 41 42 44 45 45 44 45 45 45 44 44 43 42 43 43 43 44 45 46 47 48 50 51 52 54 55 57 59 61
25 27 28 29 31 33 34 35 36 37 38 40 42 43 44 45 45 46 46 46 47 46 46 45 45 45 45 45 46 48 48 49 50 50 51 53 54 56 57 59 60 61 63
28 29 30 32 33 35 36 37 38 40 41 43 43 44 45 45 46 46 47 47 47 47 46 46 46 47 48 48 48 48 49 51 51 52 53 55 56 58 60 61 62 62 63
30 32 33 35 36 37 38 39 41 41 42 43 44 45 46 46 46 47 47 47 47 47 47 47 48 48 49 49 49 50 51 52 52 54 56 57 58 59 60 61 61 61 62
32 33 35 36 38 38 39 40 41 42 42 43 43 44 45 44 44 45 45 46 46 47 46 46 46 47 48 49 50 51 52 52 54 55 56 57 57 58 58 59 59 59 58
33 34 35 36 37 38 38 39 40 41 41 42 42 42 42 43 43 43 44 44 45 45 45 46 47 48 49 50 51 51 51 53 54 54 55 56 56 56 55 55 54 53 53
32 33 34 35 36 36 37 37 38 38 38 38 39 39 40 41 42 42 42 43 44 44 45 46 48 48 48 49 50 51 51 52 52 52 53 53 52 51 50 48 47 46 45
30 31 31 31 32 32 33 33 34 35 36 37 37 37 38 39 40 40 41 41 43 44 45 45 46 46 47 47 48 49 50 50 50 50 49 49 48 46 44 42 41 39 38
27 27 27 28 28 28 29 30 31 31 32 33 33 34 35 36 37 38 39 40 40 41 42 43 44 44 45 46 47 47 47 47 47 46 45 44 43 41 39 37 35 32 31
25 25 25 26 26 27 28 29 29 30 30 30 31 32 33 34 35 36 37 37 38 39 40 41 42 42 43 43 44 44 44 43 43 41 40 38 36 33 31 29 26 24 23
21 22 22 23 24 24 25 26 26 27 28 29 29 30 31 32 33 34 35 35 36 36 37 38 39 40 40 41 41 40 39 38 36 33 30 27 25 23 21 19 18 18 18
20 20 20 21 21 22 23 23 24 25 26 27 28 29 29 30 31 32 33 33 34 34 35 35 36 36 36 35 35 33 31 29 25 22 19 17 16 15 14 14 14 14 14
17 18 18 19 19 20 22 22 23 24 25 25 26 26 27 28 28 29 28 29 29 30 30 31 31 31 29 28 27 25 22 20 17 14 13 12 11 11 10 11 11 11 11
14 15 16 17 18 19 21 22 23 24 24 24 24 25 24 24 24 24 24 24 25 25 26 26 25 24 23 22 20 18 16 14 11 10 10 9 9 9 9 10 10 11 11
12 13 15 16 18 19 21 21 22 22 22 22 22 22 22 21 20 20 21 21 22 22 22 22 21 19 18 17 16 14 12 10 8 8 7 8 8 9 10 10 10 11 11
11 13 15 16 17 19 20 21 21 21 21 21 21 20 19 18 18 19 18 19 19 19 19 18 17 16 15 14 12 10 8 7 7 7 8 8 9 10 10 11 11 12 12
11 13 14 15 17 17 18 19 19 19 19 18 18 17 17 16 16 16 16 17 16 16 16 14 14 13 12 11 9 8 7 7 7 7 8 8 9 9 10 10 11 11 12
12 13 14 15 15 16 17 17 17 17 17 17 16 15 14 14 14 14 14 14 14 14 13 12 12 11 10 9 8 7 7 7 7 8 8 9 9 9 9 10 10 11 11
Wind_Direction
227 230 236 241 242 239 238 236 235 235 235 239 242 244 245 247 250 255 259 261 263 266 265 266 269 269 271 271 271 269 267 269 271 272 273 276 278 279 278 279 279 278 279
231 235 238 244 244 244 242 241 239 239 241 241 242 245 248 251 252 255 262 266 268 268 268 268 271 271 272 273 272 268 269 269 270 271 273 277 278 278 277 277 278 279 279
231 235 239 243 245 247 248 247 246 244 245 246 244 247 251 255 256 259 262 266 270 274 275 274 275 277 278 279 275 273 273 273 273 275 276 279 279 279 279 278 279 279 278
234 236 240 243 246 248 250 251 253 252 249 251 252 251 254 258 261 264 267 269 272 275 279 281 281 281 283 287 283 282 280 280 279 279 280 279 279 280 280 279 279 279 278
238 238 240 243 245 248 250 250 254 257 256 257 259 258 259 261 264 266 270 272 275 279 283 283 284 286 287 290 288 288 284 282 283 282 281 280 279 280 280 280 280 279 279
238 239 240 242 243 245 249 250 253 257 257 260 262 263 262 264 268 271 276 279 281 282 286 289 290 290 289 290 290 288 286 285 285 283 281 281 281 280 280 280 280 280 280
236 235 236 238 240 244 248 252 254 258 260 262 263 265 267 269 271 276 279 284 285 287 291 291 291 291 291 289 288 286 284 285 284 283 281 281 281 281 281 280 280 280 281
233 233 234 237 241 244 248 251 255 259 262 265 269 272 275 279 280 280 284 286 288 292 292 292 292 291 289 287 284 282 282 283 283 282 282 282 281 281 281 281 281 281 282
239 239 240 242 246 249 254 258 262 265 268 272 276 279 280 282 284 286 287 287 289 290 289 291 291 289 287 285 284 282 282 282 283 282 281 282 282 281 281 281 281 282 282
244 246 248 250 253 257 260 264 267 269 272 274 277 279 282 284 286 287 286 286 287 288 288 288 287 284 283 283 283 282 281 281 282 282 281 282 283 283 283 283 283 282 282
247 249 252 255 258 261 265 268 271 273 275 277 278 280 282 283 284 284 284 284 284 284 284 284 283 282 282 282 282 281 282 283 283 283 283 284 284 284 283 283 283 282 282
253 255 257 259 261 264 266 269 271 273 275 276 277 279 280 281 281 281 282 282 283 284 284 282 281 280 280 281 282 282 283 283 284 285 286 285 285 284 283 283 283 282 283
257 259 260 262 264 266 268 269 271 273 274 276 277 278 278 279 279 279 279 280 281 282 282 282 281 282 283 283 283 283 284 285 286 287 287 286 286 285 285 284 285 285 284
261 262 264 265 266 267 269 270 271 273 274 275 275 275 276 276 276 276 277 278 280 281 281 281 282 283 284 285 285 286 285 286 287 287 287 287 287 286 287 287 288 288 288
264 264 265 267 268 269 269 270 271 272 273 272 272 273 275 276 276 277 278 279 280 281 282 284 285 286 287 287 288 289 289 289 289 290 289 289 289 289 289 290 291 291 292
265 265 267 268 268 268 269 270 271 271 273 273 274 275 276 277 277 278 279 281 282 283 285 287 287 288 289 290 291 291 291 291 292 292 292 292 292 292 292 294 294 295 295
264 264 266 268 268 269 270 271 272 273 274 275 276 277 278 279 281 283 284 286 287 288 290 291 292 292 293 294 295 296 296 296 296 295 295 295 294 293 294 295 296 296 297
265 268 269 268 269 270 271 271 273 275 276 278 279 281 282 284 286 288 289 290 291 293 293 294 296 296 297 298 299 299 299 298 298 297 296 295 294 294 295 297 298 299 300
264 264 266 267 269 270 272 273 275 278 280 282 284 285 287 288 290 292 294 294 295 296 298 298 299 300 300 300 301 301 301 300 300 300 299 298 298 298 300 302 304 306 308
265 266 267 269 272 275 277 280 283 285 286 288 289 290 292 293 295 296 297 297 298 299 300 301 302 303 303 305 306 307 307 306 307 308 308 309 310 311 313 315 318 320 322
269 272 275 278 281 284 285 286 288 288 289 290 291 293 296 297 299 300 301 302 303 304 305 306 307 309 310 312 314 315 314 313 314 317 321 323 326 330 332 333 335 338 340
278 280 283 285 287 288 289 290 290 291 290 291 294 296 299 301 304 305 307 308 309 311 311 312 314 316 318 320 322 323 324 324 327 332 335 339 346 353 355 354 357 359 360
284 286 287 289 292 293 293 293 293 292 291 292 294 297 300 303 306 309 310 312 313 315 316 318 321 325 328 329 330 332 336 342 350 355 0 5 10 11 9 8 10 10 9
290 291 294 295 296 296 295 295 295 293 292 293 295 297 300 304 307 311 314 316 318 320 323 326 328 332 334 336 339 347 358 8 15 23 25 23 22 21 19 18 16 14 11
302 302 303 303 302 302 302 300 298 297 296 295 294 295 300 304 307 312 316 318 321 325 329 331 334 338 341 345 353 6 19 28 34 35 35 33 32 28 22 19 17 13 8
311 311 311 311 311 310 309 305 302 300 298 296 295 296 300 303 307 313 318 322 324 330 335 338 341 347 352 2 15 25 32 36 38 37 36 33 30 28 22 15 15 14 12
Height
5856 5859 5862 5864 5866 5867 5868 5869 5869 5870 5871 5871 5871 5871 5871 5871 5871 5871 5870 5869 5868 5866 5864 5863 5863 5861 5860 5859 5857 5855 5855 5854 5853 5852 5851 5850 5849 5848 5847 5845 5844 5842 5841
5852 5855 5857 5860 5862 5863 5864 5864 5865 5865 5866 5866 5866 5866 5866 5865 5865 5864 5863 5863 5861 5859 5857 5856 5855 5853 5851 5850 5849 5848 5847 5847 5845 5844 5843 5842 5842 5840 5839 5837 5835 5834 5832
5847 5850 5853 5855 5857 5858 5859 5860 5860 5860 5860 5860 5860 5860 5859 5859 5858 5857 5857 5855 5853 5852 5850 5848 5846 5844 5843 5842 5841 5840 5840 5839 5838 5837 5836 5835 5834 5832 5831 5828 5827 5825 5823
5842 5845 5847 5850 5852 5853 5854 5854 5854 5854 5854 5855 5855 5854 5854 5853 5851 5850 5849 5847 5846 5844 5842 5840 5839 5837 5836 5834 5833 5832 5832 5831 5830 5828 5827 5826 5824 5822 5821 5819 5817 5815 5813
5836 5839 5842 5844 5846 5847 5848 5849 5849 5849 5849 5849 5848 5848 5847 5846 5845 5844 5842 5840 5838 5836 5835 5833 5832 5830 5829 5828 5826 5825 5823 5823 5821 5820 5818 5816 5814 5812 5810 5808 5806 5804 5802
5829 5832 5835 5837 5840 5841 5842 5843 5843 5843 5842 5842 5842 5840 5839 5838 5837 5836 5834 5832 5830 5829 5827 5826 5824 5823 5821 5820 5819 5817 5816 5814 5812 5810 5808 5806 5804 5801 5799 5796 5793 5791 5789
5823 5825 5828 5831 5833 5835 5836 5836 5836 5836 5836 5835 5835 5833 5832 5831 5829 5828 5826 5824 5822 5821 5819 5818 5817 5815 5813 5811 5810 5808 5806 5804 5802 5800 5797 5795 5792 5790 5786 5783 5780 5777 5774
5817 5819 5822 5824 5826 5827 5828 5829 5829 5829 5829 5828 5827 5826 5825 5823 5821 5819 5818 5816 5814 5812 5810 5809 5807 5806 5803 5801 5799 5798 5796 5793 5791 5788 5785 5782 5780 5776 5773 5770 5766 5763 5759
5813 5815 5816 5818 5819 5820 5821 5821 5821 5821 5821 5821 5820 5819 5817 5816 5814 5812 5809 5807 5805 5803 5801 5799 5797 5795 5793 5791 5788 5786 5784 5782 5779 5776 5773 5769 5766 5762 5759 5755 5751 5747 5743
5808 5810 5811 5812 5813 5814 5814 5814 5814 5813 5813 5813 5812 5810 5809 5807 5805 5802 5800 5798 5796 5794 5791 5789 5787 5785 5782 5780 5777 5775 5772 5769 5766 5763 5759 5755 5751 5748 5743 5739 5734 5730 5725
5803 5804 5805 5806 5806 5806 5807 5806 5806 5805 5805 5804 5803 5801 5799 5797 5795 5793 5791 5788 5786 5783 5781 5778 5776 5773 5771 5768 5765 5762 5759 5756 5752 5749 5745 5741 5736 5732 5727 5722 5717 5712 5707
5796 5797 5798 5798 5798 5798 5798 5798 5797 5796 5795 5794 5793 5791 5789 5787 5785 5783 5780 5778 5775 5772 5770 5767 5764 5761 5758 5755 5752 5749 5746 5742 5738 5734 5729 5725 5720 5715 5710 5705 5699 5694 5689
5788 5789 5789 5789 5790 5789 5789 5789 5788 5787 5786 5784 5783 5781 5779 5776 5774 5772 5770 5767 5764 5761 5758 5756 5752 5749 5745 5742 5739 5735 5732 5727 5723 5718 5714 5709 5703 5698 5693 5687 5682 5677 5672
5779 5780 5780 5780 5780 5780 5779 5779 5778 5777 5775 5774 5772 5770 5768 5766 5764 5762 5759 5756 5753 5750 5747 5744 5741 5737 5733 5730 5726 5722 5717 5713 5708 5704 5698 5693 5687 5682 5677 5671 5666 5661 5656
5770 5771 5771 5770 5770 5770 5769 5768 5767 5766 5765 5763 5761 5759 5757 5755 5753 5751 5748 5745 5743 5739 5736 5732 5729 5725 5721 5717 5713 5708 5704 5699 5694 5688 5683 5678 5672 5667 5662 5657 5653 5648 5643
5762 5761 5761 5761 5760 5759 5759 5758 5757 5756 5754 5753 5751 5749 5747 5745 5742 5740 5737 5734 5731 5728 5725 5721 5717 5713 5709 5704 5699 5695 5690 5684 5679 5674 5668 5663 5659 5654 5650 5645 5641 5637 5632
5753 5753 5752 5752 5751 5751 5750 5749 5748 5746 5745 5743 5741 5739 5737 5735 5733 5730 5727 5724 5721 5718 5714 5710 5706 5701 5697 5692 5687 5681 5676 5670 5665 5660 5655 5650 5646 5642 5638 5634 5631 5627 5624
5745 5745 5744 5744 5743 5742 5741 5740 5739 5738 5736 5734 5733 5731 5729 5726 5723 5721 5718 5715 5711 5708 5704 5699 5695 5690 5685 5680 5675 5670 5664 5658 5653 5648 5643 5639 5635 5632 5628 5625 5623 5620 5617
5738 5737 5737 5736 5736 5735 5734 5733 5731 5730 5728 5726 5724 5722 5720 5718 5715 5712 5709 5705 5702 5698 5694 5689 5685 5680 5675 5670 5664 5659 5653 5648 5642 5637 5633 5630 5627 5624 5621 5619 5617 5615 5612
5732 5731 5730 5730 5729 5728 5727 5726 5724 5723 5721 5719 5717 5715 5712 5710 5707 5704 5701 5697 5693 5689 5685 5680 5676 5670 5665 5660 5654 5648 5643 5638 5634 5630 5627 5624 5622 5620 5617 5616 5614 5611 5609
5727 5726 5725 5724 5723 5722 5721 5719 5718 5716 5714 5712 5710 5708 5705 5703 5700 5696 5693 5689 5685 5681 5677 5672 5667 5662 5657 5651 5646 5641 5637 5633 5629 5627 5624 5622 5620 5618 5615 5614 5612 5610 5607
5722 5721 5721 5720 5718 5717 5715 5713 5712 5709 5707 5705 5703 5701 5698 5696 5693 5689 5686 5682 5679 5675 5670 5666 5661 5656 5651 5646 5642 5637 5633 5630 5627 5625 5623 5621 5619 5617 5615 5613 5611 5609 5607
5719 5718 5716 5715 5713 5712 5710 5708 5705 5703 5701 5699 5697 5694 5692 5689 5686 5684 5680 5677 5673 5669 5665 5660 5656 5652 5647 5643 5639 5635 5632 5629 5627 5625 5623 5621 5619 5618 5616 5614 5612 5609 5607
5715 5714 5712 5711 5709 5706 5704 5702 5699 5697 5695 5693 5690 5688 5686 5684 5681 5678 5675 5672 5669 5665 5661 5656 5653 5649 5645 5641 5638 5635 5632 5630 5627 5626 5624 5622 5620 5619 5617 5615 5613 5611 5608
5712 5710 5708 5706 5704 5701 5699 5696 5693 5691 5689 5687 5685 5683 5681 5679 5677 5674 5671 5668 5665 5662 5658 5654 5651 5648 5644 5641 5637 5634 5632 5630 5629 5627 5625 5624 5622 5620 5618 5616 5614 5612 5609
5709 5707 5704 5702 5699 5697 5693 5690 5688 5685 5683 5681 5679 5678 5676 5674 5673 5671 5668 5665 5662 5659 5656 5653 5650 5647 5644 5641 5638 5636 5634 5632 5631 5629 5627 5625 5623 5622 5620 5617 5615 5612 5610